Weather in Hickory

United States     35°43′50″N   81°20′17″W
temp.,
°C
wind,
m/s
gust,
m/s
humid.,
%
clouds,
%
prec.,
mm/h
press.,
hPa
HPBL,
m
23 may, mon
mon2323:00+19nnw1191100 2.1 102122
02:00+18wnw1194100 3.3 102113
05:00+17n1194100 0.3 102015
08:00+18nne2494100 0.3 102096
11:00+21ene1183100 0.4 1021286
14:00+19nnw1295100 3.8 1021118
17:00+18ene2498100 2.6 1018222
20:00+18e41098100 3.3 1018421
24 may, tue
tue2423:00+18ese51299100 1.1 1018575
02:00+18ese2899100 3.3 1016507
05:00+18ene1399100 1.4 1016271
08:00+16nne3599100 1.6 1018258
11:00+16nne2496100 0.0 1019320
14:00+17ne2392100 0.1 1020436
17:00+18ne3485100 0.0 1019459
20:00+16ne4888100 0.0 1020382
25 may, wed
wed2523:00+14ne399786 0.0 1022298
02:00+13ene1498100 0.0 1022137
05:00+14nne2592100 0.0 1022255
08:00+15ne2489100 0.0 1023302
11:00+19ene2279100 0.0 1023656
14:00+22e2167100 0.0 1022973
17:00+22ene3373100 0.0 1021656
20:00+19ne3684100 0.1 1022275
26 may, thu
thu2623:00+18ne3785100 0.0 1023308
02:00+16ne3690100 0.0 1023312
05:00+15ene3697100 0.9 1022320
08:00+15ne2598100 1.5 1023252
11:00+18ene2394100 0.0 1022378
14:00+21ese2485100 0.4 1020640
17:00+20sw259488 5.6 1018269
20:00+20sse389121 9.9 1017257
27 may, fri
fri2723:00+17ssw229887 2.3 101832
02:00+18sse279985 5.1 1016277
05:00+18sse249986 2.0 1014149
08:00+19sse21099100 4.9 1015512
11:00+19s41296100 3.0 1013847
14:00+19s5119699 13.8 1013829
17:00+21s5995100 9.5 1011671
20:00+20sse3898100 10.1 1010414